Regional Weather Roundup
Issued by NWS

Home | Current Version | Previous Version | Graphics & Text | Print | Product List | Glossary On
Versions: 1 2 3 4 5 6 7 8 9 10 11 12 13 14 15 16 17 18 19 20 21 22 23 24 25 26 27 28 29 30 31 32 33 34 35 36 37 38 39 40 41 42 43 44 45 46 47 48 49 50
000
ASUS43 KTOP 091608
RWRKS

WEATHER ROUNDUP FOR KANSAS
NATIONAL WEATHER SERVICE GOODLAND KS
1000 AM CST TUE FEB 09 2016

NOTE:  "FAIR" INDICATES FEW OR NO CLOUDS BELOW 12,000 FEET WITH NO
SIGNIFICANT WEATHER AND/OR OBSTRUCTIONS TO VISIBILITY.

KSZ001>006-013>018-027>032-041>047-091700-
NORTHWEST KANSAS

CITY           SKY/WX    TMP DP  RH WIND       PRES   REMARKS
GOODLAND       SUNNY     35  25  66 N10       30.26S WCI  27
HAYS           CLOUDY    36  18  48 N12       30.29R WCI  27
HILL CITY      CLOUDY    33  21  61 NW6       30.30R
RUSSELL        CLOUDY    33  19  56 N16       30.28R WCI  23
$$

KSZ061>065-074>080-084>089-091700-
SOUTHWEST KANSAS

CITY           SKY/WX    TMP DP  RH WIND       PRES   REMARKS
DODGE CITY     SUNNY     41  21  44 N16G24    30.28S
ELKHART          N/A     48  27  44 W12         N/A
GARDEN CITY    SUNNY     40  28  62 N15       30.28R WCI  32
GREAT BEND     CLOUDY    34  18  51 N12       30.30R WCI  25
LIBERAL        SUNNY     48  30  49 NW15      30.29R
PRATT          PTSUNNY   34  20  56 N14       30.28R WCI  24
$$

KSZ066>073-081>083-090>101-091700-
SOUTHEAST KANSAS

CITY           SKY/WX    TMP DP  RH WIND       PRES   REMARKS
CHANUTE        SUNNY     32  11  41 NW18G26   30.20R WCI  20
COFFEYVILLE    SUNNY     35   9  33 N23G32    30.22R WCI  23
HUTCHINSON     CLOUDY    36  18  48 N16G24    30.26R WCI  26
MEDICINE LODGE   N/A     39  21  48 N9        30.29R
NEWTON         SUNNY     32  16  51 N28G33    30.25R WCI  18
PARSONS        SUNNY     34  10  37 NW22G31   30.21R WCI  22
WICHITA INTL   PTSUNNY   35  19  52 N22G28    30.26R WCI  23
WICHITA JABRA  CLOUDY    34  19  54 NW22G30   30.25R WCI  22
WICHITA MCCONL PTSUNNY   33  19  55 N22G28    30.25R WCI  21
WINFIELD       CLOUDY    36  20  52 N22G28    30.27R WCI  25
$$

KSZ007>012-019>026-033>040-048>060-102>105-091700-
NORTHEAST KANSAS

CITY           SKY/WX    TMP DP  RH WIND       PRES   REMARKS
CONCORDIA      MOSUNNY   27   9  46 N21G32    30.29R WCI  13
EMPORIA        SUNNY     29   5  36 N24G33    30.21R WCI  15
LAWRENCE       SUNNY     25  10  53 N14G23    30.22R WCI  13
MANHATTAN      SUNNY     28   6  39 N14G29    30.27R WCI  17
MARYSVILLE     SUNNY     27   9  46 N23G33    30.25R WCI  12
OLATHE IND     SUNNY     22   9  57 NW23G35   30.19R WCI   6
OLATHE EXE     MOSUNNY   21   8  57 N17G29    30.17R WCI   7
SALINA         PTSUNNY   36  12  37 N23G31    30.30R WCI  24
TOPEKA BILLARD SUNNY     27   5  39 NW22G33   30.23R WCI  13
TOPEKA FORBES  SUNNY     28   6  39 NW23G32   30.20R WCI  14
$$



USA.gov is the U.S. government's official web portal to all federal, state and local government web resources and services.